N8LZG Weather Reports


time (UTC)temp
C
wind
direction
speed
KPH
gust
KPH
rain 1hr
cm
rain 24hr
cm
rain mn
cm
humidity
%
barometer
mb
20260505041509 19 292 0.0 8.0 0.00 0.00 0.00 61 1006.0
20260505040018 19 246 3.2 8.0 0.00 0.00 0.00 61 1006.1
20260505034506 19 271 3.2 8.0 0.00 0.00 0.00 62 1006.1
20260505033012 19 207 1.6 9.7 0.00 0.00 0.00 61 1006.0
20260505031505 19 123 0.0 8.0 0.00 0.00 0.00 62 1006.1
20260505030013 19 267 0.0 4.8 0.00 0.00 0.00 62 1005.9
20260505024504 19 173 0.0 4.8 0.00 0.00 0.00 61 1005.7
20260505023004 20 207 0.0 3.2 0.00 0.00 0.00 61 1005.5
20260505021504 20 100 0.0 4.8 0.00 0.00 0.00 59 1005.3
20260505020007 20 139 0.0 4.8 0.00 0.00 0.00 58 1005.2
20260505014503 20 133 0.0 8.0 0.00 0.00 0.00 57 1005.1
20260505013104 20 142 1.6 6.4 0.00 0.00 0.00 56 1005.0
20260505011500 21 134 0.0 6.4 0.00 0.00 0.00 55 1004.9
20260505010108 21 225 0.0 6.4 0.00 0.00 0.00 53 1004.8
20260505004602 21 150 1.6 6.4 0.00 0.00 0.00 51 1004.8
20260505003059 22 171 0.0 12.9 0.00 0.00 0.00 50 1004.8
20260505001600 22 248 1.6 8.0 0.00 0.00 0.00 49 1004.9
20260505000107 22 11 1.6 16.1 0.00 0.00 0.00 48 1005.0
20260504234606 23 306 1.6 22.5 0.00 0.00 0.00 46 1005.2
20260504233058 23 157 3.2 14.5 0.00 0.00 0.00 46 1005.3
20260504231553 23 136 4.8 14.5 0.00 0.00 0.00 46 1005.3
20260504230053 23 283 4.8 17.7 0.00 0.00 0.00 47 1005.5
20260504224553 23 241 4.8 11.3 0.00 0.00 0.00 50 1005.6
20260504223052 23 285 3.2 6.4 0.00 0.00 0.00 51 1005.7
20260504221549 23 182 1.6 6.4 0.00 0.00 0.00 52 1005.6
20260504220055 23 154 3.2 9.7 0.00 0.00 0.00 50 1005.9
20260504214546 23 273 1.6 11.3 0.00 0.00 0.00 52 1006.3
20260504213103 23 135 1.6 9.7 0.00 0.00 0.00 50 1006.4
20260504211544 23 265 1.6 12.9 0.00 0.00 0.00 49 1006.5
20260504210040 23 243 3.2 16.1 0.00 0.00 0.00 49 1006.7
20260504204542 23 269 3.2 14.5 0.00 0.00 0.00 49 1006.9
20260504203035 23 299 1.6 11.3 0.00 0.00 0.00 51 1007.1
20260504201533 23 234 4.8 14.5 0.00 0.00 0.00 49 1007.2
20260504200030 23 283 3.2 16.1 0.00 0.00 0.00 52 1007.4
20260504194525 22 213 3.2 14.5 0.00 0.00 0.00 54 1007.8
20260504193022 21 298 1.6 9.7 0.00 0.00 0.00 60 1008.1
20260504191520 21 36 3.2 11.3 0.00 0.00 0.00 61 1008.6
20260504190019 20 248 1.6 17.7 0.00 0.00 0.00 61 1008.8
20260504184517 20 199 3.2 19.3 0.00 0.00 0.00 59 1008.8
20260504183015 20 248 3.2 14.5 0.00 0.00 0.00 58 1008.6
20260504181518 21 118 8.0 16.1 0.00 0.00 0.00 56 1008.3
20260504180013 21 252 6.4 16.1 0.00 0.00 0.00 57 1007.9
20260504174515 21 167 4.8 19.3 0.00 0.00 0.00 59 1007.8
20260504173007 20 180 4.8 12.9 0.00 0.00 0.00 62 1008.2
20260504171508 20 207 1.6 9.7 0.00 0.00 0.00 60 1007.8
20260504100114 10 113 0.0 3.2 0.00 0.00 0.00 71 1010.0
20260504081541 10 121 0.0 3.2 0.00 0.00 0.00 66 1010.8
20260504050021 10 111 0.0 1.6 0.00 0.00 0.00 64 1012.7
20260504044528 11 149 0.0 4.8 0.00 0.00 0.00 64 1012.7
20260504043027 11 174 0.0 1.6 0.00 0.00 0.00 62 1012.8